This demonstration page uses our WeatherBlox Daily Observations layout. Learn more.

Left ArrowRight Arrow

34.74481, -87.66753

Hourly Observations for December 2, 2020

Temp ( °F °C ) Dew Point ( °F °C ) Humidity (%) Winds ( mph kmh ) Pressure ( in mb ) Visibility ( mi km ) Precip ( " mm )
12:53 am 00:53 Clear 27 -2.8 23 -5 85 85 Calm 30.28 1025 10 16 0.00 0.00
1:53 am 01:53 Clear 25 -3.9 21 -6.1 85 85 Calm 30.30 1026 10 16 0.00 0.00
2:53 am 02:53 Clear 24 -4.4 20 -6.7 84 84 Calm 30.33 1027 10 16 0.00 0.00
3:53 am 03:53 Clear 24 -4.4 20 -6.7 84 84 Calm 30.34 1028 10 16 0.00 0.00
4:53 am 04:53 Clear 24 -4.4 20 -6.7 84 84 Calm 30.37 1029 10 16 0.00 0.00
5:53 am 05:53 Clear 24 -4.4 20 -6.7 84 84 Calm 30.39 1029 10 16 0.00 0.00
6:51 am 06:51 Partly Cloudy 25 -4 19 -7 80 80 Calm 30.44 1031 10 16 0.00 0.00
6:53 am 06:53 Partly Cloudy 24 -4.4 20 -6.7 84 84 Calm 30.41 1030 10 16 0.00 0.00
7:00 am 07:00 Mostly Cloudy 25 -3.9 20 -6.7 81 81 Calm 30.44 1031 10 16 0.00 0.00
7:30 am 07:30 Cloudy with Mist and Fog 27 -2.8 24 -4.4 89 89 Calm 30.44 1031 1 2 0.00 0.00
7:35 am 07:35 Cloudy with Freezing Fog 27 -2.8 24 -4.4 89 89 Calm 30.44 1031 0 0 0.00 0.00
7:50 am 07:50 Mostly Cloudy with Mist and Fog 28 -2 27 -3 93 93 Calm 30.44 1031 1 2 0.00 0.00
7:53 am 07:53 Mostly Cloudy with Mist and Fog 29 -1.7 26 -3.3 89 89 Calm 30.42 1030 4 6 0.00 0.00
8:02 am 08:02 Partly Cloudy 29 -1.7 26 -3.3 89 89 Calm 30.44 1031 10 16 0.00 0.00
8:53 am 08:53 Sunny 32 0 28 -2.2 85 85 Calm 30.43 1031 10 16 0.00 0.00
9:53 am 09:53 Sunny 39 3.9 30 -1.1 70 70 ESE 5 7 30.44 1031 10 16 0.00 0.00
10:53 am 10:53 Sunny 43 6.1 25 -3.9 49 49 E 7 11 30.42 1030 10 16 0.00 0.00
11:53 am 11:53 Sunny 46 7.8 24 -4.4 42 42 E 6 9 30.40 1029 10 16 0.00 0.00
12:53 pm 12:53 Sunny 49 9.4 24 -4.4 38 38 ENE 6 9 30.36 1028 10 16 0.00 0.00
1:53 pm 13:53 Sunny 50 10 23 -5 35 35 S 3 6 30.35 1028 10 16 0.00 0.00
2:53 pm 14:53 Sunny 51 10.6 22 -5.6 32 32 Calm 30.34 1027 10 16 0.00 0.00
3:53 pm 15:53 Sunny 49 9.4 25 -3.9 39 39 ESE 6 9 30.33 1027 10 16 0.00 0.00
4:53 pm 16:53 Clear 43 6.1 24 -4.4 47 47 ESE 3 6 30.33 1027 10 16 0.00 0.00
5:53 pm 17:53 Clear 40 4.4 24 -4.4 53 53 ESE 3 6 30.33 1027 10 16 0.00 0.00
6:53 pm 18:53 Clear 36 2.2 26 -3.3 67 67 Calm 30.32 1027 10 16 0.00 0.00
7:53 pm 19:53 Clear 34 1.1 28 -2.2 79 79 ENE 3 6 30.32 1027 10 16 0.00 0.00
8:53 pm 20:53 Clear 36 2.2 27 -2.8 70 70 Calm 30.32 1027 10 16 0.00 0.00
9:53 pm 21:53 Clear 33 0.6 26 -3.3 75 75 Calm 30.31 1027 10 16 0.00 0.00
10:53 pm 22:53 Clear 30 -1.1 25 -3.9 82 82 W 5 7 30.32 1027 10 16 0.00 0.00
11:53 pm 23:53 Clear 30 -1.1 25 -3.9 82 82 E 5 7 30.29 1026 10 16 0.00 0.00

Powered by AerisWeather